WA4ORT Weather Reports


Display with metric or nautical units.
time (UTC)temp
F
wind
direction
speed
MPH
gust
MPH
rain 1hr
in
rain 24hr
in
rain mn
in
humidity
%
barometer
mb
20260505021747 61 98 0.0 0.0 0.00 0.00 0.00
20260505020252 0 146 850.0 0.0 0.00 0.00 0.00
20260505020248 61 98 0.0 0.0 0.00 0.00 0.00
20260505014754 62 98 0.0 0.0 0.00 0.00 0.00
20260505013259 63 98 0.0 0.0 0.00 0.00 0.00
20260505011804 0 146 850.0 0.0 0.00 0.00 0.00
20260505011801 64 98 0.0 0.0 0.00 0.00 0.00
20260505010306 65 98 0.0 0.0 0.00 0.00 0.00
20260505004811 67 98 0.0 0.0 0.00 0.00 0.00
20260505003317 0 146 850.0 0.0 0.00 0.00 0.00
20260505003313 69 98 0.0 0.0 0.00 0.00 0.00
20260505001819 70 98 0.0 0.0 0.00 0.00 0.00
20260505000324 72 117 1.0 0.0 0.00 0.00 0.00
20260504234830 0 146 850.0 0.0 0.00 0.00 0.00
20260504234826 73 115 1.0 1.0 0.00 0.00 0.00
20260504233331 74 124 1.0 1.0 0.00 0.00 0.00
20260504231836 76 177 0.0 0.0 0.00 0.00 0.00
20260504230342 0 146 850.0 0.0 0.00 0.00 0.00
20260504230338 75 114 0.0 0.0 0.00 0.00 0.00
20260504224843 75 167 1.0 2.0 0.00 0.00 0.00
20260504223349 75 167 2.0 2.0 0.00 0.00 0.00
20260504221854 0 146 850.0 0.0 0.00 0.00 0.00
20260504221850 77 190 5.0 5.0 0.00 0.00 0.00
20260504220356 77 170 2.0 2.0 0.00 0.00 0.00
20260504214901 77 195 2.0 3.0 0.00 0.00 0.00
20260504213406 0 146 850.0 0.0 0.00 0.00 0.00
20260504213403 77 153 2.0 1.0 0.00 0.00 0.00
20260504211908 77 200 2.0 5.0 0.00 0.00 0.00
20260504210414 77 194 4.0 4.0 0.00 0.00 0.00
20260504204919 0 146 850.0 0.0 0.00 0.00 0.00
20260504204915 78 160 0.0 0.0 0.00 0.00 0.00
20260504203421 77 75 2.0 0.0 0.00 0.00 0.00
20260504201926 76 200 3.0 6.0 0.00 0.00 0.00
20260504200431 0 146 850.0 0.0 0.00 0.00 0.00
20260504200428 76 207 3.0 3.0 0.00 0.00 0.00
20260504194933 77 269 1.0 3.0 0.00 0.00 0.00
20260504193439 76 180 2.0 6.0 0.00 0.00 0.00
20260504191944 0 146 850.0 0.0 0.00 0.00 0.00
20260504191940 76 170 3.0 3.0 0.00 0.00 0.00
20260504190446 76 138 3.0 0.0 0.00 0.00 0.00
20260504184951 75 300 1.0 1.0 0.00 0.00 0.00
20260504183456 0 146 850.0 0.0 0.00 0.00 0.00
20260504183453 75 184 3.0 2.0 0.00 0.00 0.00
20260504181958 75 264 3.0 0.0 0.00 0.00 0.00
20260504180504 74 49 4.0 2.0 0.00 0.00 0.00
20260504175009 0 146 850.0 0.0 0.00 0.00 0.00
20260504175005 73 323 2.0 2.0 0.00 0.00 0.00
20260504173511 74 257 4.0 4.0 0.00 0.00 0.00
20260504172016 72 308 3.0 3.0 0.00 0.00 0.00
20260504170521 0 146 850.0 0.0 0.00 0.00 0.00
20260504170518 71 359 6.0 8.0 0.00 0.00 0.00
20260504150553 68 321 6.0 2.0 0.00 0.00 0.00
20260504140610 0 146 850.0 0.0 0.00 0.00 0.00
20260504140606 66 44 0.0 0.0 0.00 0.00 0.00
20260504130624 59 318 0.0 0.0 0.00 0.00 0.00
20260504110657 0 146 850.0 0.0 0.00 0.00 0.00
20260504110654 46 318 0.0 0.0 0.00 0.00 0.00
20260504080744 0 146 850.0 0.0 0.00 0.00 0.00
20260504080740 47 203 0.0 0.0 0.00 0.00 0.00
20260504045333 51 203 0.0 0.0 0.00 0.00 0.00
20260504043838 52 203 0.0 0.0 0.00 0.00 0.00
20260504042343 0 146 850.0 0.0 0.00 0.00 0.00
20260504042340 52 203 0.0 0.0 0.00 0.00 0.00
20260504040845 53 203 0.0 0.0 0.00 0.00 0.00
20260504035350 54 203 0.0 0.0 0.00 0.00 0.00
20260504033855 0 146 850.0 0.0 0.00 0.00 0.00
20260504033852 54 203 0.0 0.0 0.00 0.00 0.00
20260504032357 54 203 0.0 0.0 0.00 0.00 0.00
20260504030902 55 203 0.0 0.0 0.00 0.00 0.00
20260504025407 0 146 850.0 0.0 0.00 0.00 0.00
20260504025404 56 203 0.0 0.0 0.00 0.00 0.00
20260504023909 56 219 1.0 1.0 0.00 0.00 0.00